Observations for Trim Patrick St
| Time | AQI | Temp °C | Hum % | Pres Pa | CO μg/m³ | H₂S μg/m³ | NO μg/m³ | NO₂ μg/m³ | O₃ μg/m³ | SO₂ μg/m³ | PM1 μg/m³ | PM2.5 μg/m³ | PM10 μg/m³ |
|---|---|---|---|---|---|---|---|---|---|---|---|---|---|
| Wednesday 5 August 2026 | |||||||||||||
| 18:05 | 2 | 22.8 | 51 | 70,213 | 0 | 0 | 2.77 | 10.38 | 56.23 | 4.51 | 2 | 6.35 | 6.99 |
| 18:04 | 2 | 22.8 | 52 | 70,313 | 0 | 0 | 2.74 | 6.52 | 59.3 | 5.75 | 2 | 6.31 | 6.94 |
| 18:03 | 2 | 22.7 | 53 | 70,498 | 0 | 1.02 | 2.64 | 10.77 | 69.44 | 6 | 2 | 6.22 | 6.84 |
| 18:02 | 2 | 22.5 | 53 | 70,558 | 0 | 0.5 | 2.69 | 12 | 82.38 | 5.5 | 2 | 6.99 | 7.69 |
| 18:01 | 2 | 22.4 | 53 | 70,520 | 0 | 0 | 2.65 | 4.94 | 62.41 | 5.38 | 2 | 6.22 | 6.85 |
| 18:00 | 2 | 22.3 | 53 | 70,533 | 0 | 0.99 | 2.41 | 12.01 | 74.79 | 5.43 | 2 | 7.01 | 7.71 |
| 17:59 | 2 | 22.4 | 53 | 70,421 | 0 | 0 | 2.63 | 5.51 | 61.39 | 5.84 | 2.86 | 7.72 | 8.5 |
| 17:58 | 2 | 22.5 | 52 | 70,344 | 0 | 0 | 2.42 | 6 | 64.41 | 5.62 | 2 | 6.31 | 6.94 |
| 17:57 | 2 | 22.6 | 51 | 70,299 | 0 | 0 | 2.31 | 5.57 | 63.85 | 5.91 | 2 | 6.35 | 6.99 |
| 17:56 | 2 | 22.7 | 51 | 70,266 | 0 | 0 | 2.56 | 3.65 | 59.51 | 5.75 | 2 | 7.14 | 7.85 |
| 17:55 | 2 | 22.9 | 51 | 70,257 | 0 | 0 | 2.67 | 6.18 | 62.56 | 5.8 | 2 | 6.37 | 7.01 |
| 17:54 | 2 | 23 | 50 | 70,213 | 0 | 0 | 2.61 | 1.1 | 52.66 | 6.89 | 2 | 6.4 | 7.04 |
| 17:53 | 2 | 23.2 | 51 | 70,221 | 0 | 0 | 2.58 | 7.67 | 58.22 | 5.39 | 2 | 6.37 | 7.01 |
| 17:52 | 2 | 23.3 | 50 | 70,099 | 0 | 0 | 2.57 | 4.78 | 53.86 | 6.07 | 2 | 6.41 | 7.05 |
| 17:51 | 2 | 23.5 | 51 | 70,064 | 0 | 0 | 2.58 | 5.57 | 60.24 | 6.63 | 2 | 6.38 | 7.01 |
| 17:50 | 2 | 23.6 | 49 | 70,042 | 0 | 0 | 2.51 | 5.26 | 51.9 | 5.85 | 2 | 6.47 | 7.12 |
| 17:49 | 2 | 23.8 | 50 | 69,978 | 0 | 0 | 2.5 | 7.26 | 63.66 | 6.97 | 2 | 6.39 | 7.03 |
| 17:48 | 2 | 23.8 | 48 | 69,986 | 0 | 0 | 2.43 | 4.12 | 43.73 | 6.58 | 2 | 7.3 | 8.03 |
| 17:47 | 2 | 24 | 49 | 69,968 | 0 | 0 | 2.44 | 5.43 | 29.41 | 6.08 | 2 | 6.46 | 7.1 |
| 17:46 | 2 | 24 | 52 | 69,978 | 0 | 0 | 2.6 | 6.92 | 54.44 | 8.04 | 2 | 6.29 | 6.92 |